GW3847 Weather Reports


Display with metric or nautical units.
time (UTC)temp
F
wind
direction
speed
MPH
gust
MPH
rain 1hr
in
rain 24hr
in
rain mn
in
humidity
%
barometer
mb
20260504173641 68 261 3.0 15.0 0.00 0.00 0.00 34 1008.8
20260504173138 68 239 2.0 7.0 0.00 0.00 0.00 35 1008.6
20260504172635 67 115 1.0 15.0 0.00 0.00 0.00 35 1008.8
20260504172131 65 95 2.0 6.0 0.00 0.00 0.00 35 1008.5
20260504171628 65 122 2.0 7.0 0.00 0.00 0.00 36 1008.7
20260504171125 65 91 2.0 3.0 0.00 0.00 0.00 36 1008.5
20260504170621 64 197 1.0 3.0 0.00 0.00 0.00 36 1008.8
20260504170119 65 285 4.0 14.0 0.00 0.00 0.00 36 1008.9
20260504151004 60 112 4.0 7.0 0.00 0.00 0.00 41 1009.7
20260504150502 60 192 4.0 7.0 0.00 0.00 0.00 40 1009.8
20260504140928 60 132 6.0 10.0 0.00 0.00 0.00 41 1010.0
20260504140424 60 308 2.0 4.0 0.00 0.00 0.00 42 1009.9
20260504130349 55 91 1.0 4.0 0.00 0.00 0.00 50 1010.6
20260504120312 47 140 0.0 4.0 0.00 0.00 0.00 63 1011.3
20260504110236 40 148 0.0 0.0 0.00 0.00 0.00 82 1011.2
20260504100154 38 128 0.0 0.0 0.00 0.00 0.00 85 1011.0
20260504090117 39 150 0.0 0.0 0.00 0.00 0.00 82 1010.8
20260504081552 41 141 0.0 1.0 0.00 0.00 0.00 74 1010.9
20260504081048 39 159 0.0 3.0 0.00 0.00 0.00 77 1011.0
20260504080545 38 167 0.0 0.0 0.00 0.00 0.00 81 1011.0
20260504050358 33 294 0.0 0.0 0.00 0.00 0.00 86 1011.1
20260504045855 33 294 0.0 0.0 0.00 0.00 0.00 86 1011.0
20260504045350 33 294 0.0 0.0 0.00 0.00 0.00 86 1011.2
20260504044847 33 294 0.0 0.0 0.00 0.00 0.00 86 1011.2
20260504044345 33 294 0.0 0.0 0.00 0.00 0.00 87 1011.2
20260504043842 32 294 0.0 0.0 0.00 0.00 0.00 88 1011.1
20260504043338 32 294 0.0 0.0 0.00 0.00 0.00 88 1011.2
20260504042836 31 294 0.0 0.0 0.00 0.00 0.00 88 1011.1
20260504042332 31 294 0.0 0.0 0.00 0.00 0.00 88 1011.3
20260504041828 31 294 0.0 0.0 0.00 0.00 0.00 89 1011.1
20260504041325 30 294 0.0 0.0 0.00 0.00 0.00 88 1011.3
20260504040821 30 294 0.0 0.0 0.00 0.00 0.00 88 1011.1
20260504040319 30 294 0.0 0.0 0.00 0.00 0.00 87 1011.0
20260504035815 30 294 0.0 0.0 0.00 0.00 0.00 87 1010.9
20260504035312 30 294 0.0 0.0 0.00 0.00 0.00 87 1010.9
20260504034809 31 294 0.0 0.0 0.00 0.00 0.00 87 1010.9
20260504034307 31 294 0.0 0.0 0.00 0.00 0.00 86 1010.9
20260504033804 31 294 0.0 0.0 0.00 0.00 0.00 86 1010.9
20260504033302 31 294 0.0 0.0 0.00 0.00 0.00 86 1011.0
20260504032758 31 294 0.0 0.0 0.00 0.00 0.00 87 1010.7
20260504032255 31 294 0.0 0.0 0.00 0.00 0.00 87 1010.9
20260504031752 30 294 0.0 0.0 0.00 0.00 0.00 87 1011.0
20260504031249 30 294 0.0 0.0 0.00 0.00 0.00 86 1010.9
20260504030745 31 294 0.0 0.0 0.00 0.00 0.00 85 1010.8
20260504030243 31 294 0.0 0.0 0.00 0.00 0.00 83 1010.8
20260504025739 31 294 0.0 0.0 0.00 0.00 0.00 82 1010.7
20260504025236 31 294 0.0 0.0 0.00 0.00 0.00 82 1010.9
20260504024733 32 294 0.0 0.0 0.00 0.00 0.00 81 1010.9
20260504024229 32 294 0.0 0.0 0.00 0.00 0.00 80 1010.8
20260504023726 33 294 0.0 0.0 0.00 0.00 0.00 79 1011.0
20260504023222 33 294 0.0 0.0 0.00 0.00 0.00 79 1010.7
20260504022718 32 294 0.0 0.0 0.00 0.00 0.00 80 1010.9
20260504022215 33 294 0.0 0.0 0.00 0.00 0.00 81 1010.9
20260504021712 33 294 0.0 0.0 0.00 0.00 0.00 79 1010.9
20260504021209 33 294 0.0 0.0 0.00 0.00 0.00 79 1010.8
20260504020706 33 294 0.0 0.0 0.00 0.00 0.00 78 1010.9
20260504020202 33 294 0.0 0.0 0.00 0.00 0.00 78 1011.0
20260504015658 33 294 0.0 0.0 0.00 0.00 0.00 77 1010.8
20260504015155 34 294 0.0 0.0 0.00 0.00 0.00 75 1010.9
20260504014650 34 294 0.0 0.0 0.00 0.00 0.00 75 1010.6
20260504014148 34 294 0.0 0.0 0.00 0.00 0.00 77 1010.8
20260504013646 35 294 0.0 0.0 0.00 0.00 0.00 76 1010.7
20260504013142 35 294 0.0 0.0 0.00 0.00 0.00 75 1010.7
20260504012639 35 294 0.0 0.0 0.00 0.00 0.00 75 1010.6
20260504012137 35 294 0.0 0.0 0.00 0.00 0.00 74 1010.5
20260504011634 35 294 0.0 0.0 0.00 0.00 0.00 73 1010.5
20260504011131 36 294 0.0 0.0 0.00 0.00 0.00 72 1010.4
20260504010626 36 294 0.0 0.0 0.00 0.00 0.00 72 1010.4
20260504010122 36 294 0.0 0.0 0.00 0.00 0.00 70 1010.2
20260504005619 37 295 0.0 0.0 0.00 0.00 0.00 71 1010.1
20260504005116 37 294 0.0 0.0 0.00 0.00 0.00 69 1010.0
20260504004615 37 295 0.0 0.0 0.00 0.00 0.00 68 1010.0
20260504004111 38 295 0.0 0.0 0.00 0.00 0.00 70 1009.9
20260504003608 38 295 0.0 0.0 0.00 0.00 0.00 67 1010.0
20260504003104 39 295 0.0 0.0 0.00 0.00 0.00 66 1009.9
20260504002601 39 295 0.0 0.0 0.00 0.00 0.00 65 1009.9
20260504002059 40 295 0.0 0.0 0.00 0.00 0.00 59 1010.0
20260504001556 40 295 0.0 0.0 0.00 0.00 0.00 58 1009.8
20260504001052 41 295 0.0 0.0 0.00 0.00 0.00 66 1009.8
20260504000549 42 295 0.0 0.0 0.00 0.00 0.00 61 1009.9
20260504000046 42 295 0.0 0.0 0.00 0.00 0.00 54 1009.6
20260503235545 43 7 0.0 0.0 0.00 0.00 0.00 54 1009.7
20260503235041 44 327 0.0 0.0 0.00 0.00 0.00 53 1009.5
20260503234539 44 327 0.0 0.0 0.00 0.00 0.00 50 1009.6
20260503234037 44 227 0.0 0.0 0.00 0.00 0.00 50 1009.6
20260503233533 45 297 0.0 0.0 0.00 0.00 0.00 50 1009.7
20260503233029 45 241 0.0 3.0 0.00 0.00 0.00 48 1009.4
20260503232527 45 202 0.0 1.0 0.00 0.00 0.00 49 1009.4
20260503232024 46 186 0.0 0.0 0.00 0.00 0.00 49 1009.5
20260503231522 46 264 0.0 4.0 0.00 0.00 0.00 48 1009.5
20260503231018 47 320 0.0 0.0 0.00 0.00 0.00 48 1009.3
20260503230515 47 56 0.0 1.0 0.00 0.00 0.00 47 1009.4
20260503230013 47 284 0.0 1.0 0.00 0.00 0.00 46 1009.1
20260503225509 47 2 0.0 0.0 0.00 0.00 0.00 47 1009.3
20260503225004 47 69 0.0 1.0 0.00 0.00 0.00 45 1009.1
20260503224501 47 258 0.0 2.0 0.00 0.00 0.00 44 1009.2
20260503223959 47 288 0.0 3.0 0.00 0.00 0.00 44 1009.2
20260503223456 48 349 1.0 4.0 0.00 0.00 0.00 44 1009.1
20260503222951 48 341 3.0 4.0 0.00 0.00 0.00 44 1009.2
20260503222450 49 3 1.0 6.0 0.00 0.00 0.00 42 1009.3
20260503221948 50 137 2.0 4.0 0.00 0.00 0.00 40 1009.0
20260503221446 49 264 0.0 8.0 0.00 0.00 0.00 43 1009.3
20260503220943 49 79 0.0 1.0 0.00 0.00 0.00 44 1009.2
20260503220439 49 228 1.0 6.0 0.00 0.00 0.00 45 1009.1
20260503215936 49 314 0.0 1.0 0.00 0.00 0.00 44 1009.1
20260503215433 49 219 0.0 4.0 0.00 0.00 0.00 44 1009.0
20260503214931 50 65 0.0 3.0 0.00 0.00 0.00 44 1009.0
20260503214428 52 5 0.0 8.0 0.00 0.00 0.00 39 1008.9
20260503213925 53 156 1.0 1.0 0.00 0.00 0.00 39 1008.8
20260503213424 51 165 0.0 2.0 0.00 0.00 0.00 40 1009.0
20260503212920 49 223 0.0 2.0 0.00 0.00 0.00 43 1008.9
20260503212417 48 303 3.0 6.0 0.00 0.00 0.00 43 1008.9
20260503211915 49 199 3.0 6.0 0.00 0.00 0.00 42 1008.9
20260503211412 50 331 0.0 2.0 0.00 0.00 0.00 41 1008.8
20260503210907 50 308 4.0 7.0 0.00 0.00 0.00 39 1008.5
20260503210404 49 121 0.0 3.0 0.00 0.00 0.00 43 1008.6
20260503205858 50 148 2.0 3.0 0.00 0.00 0.00 42 1008.5
20260503205355 51 350 4.0 7.0 0.00 0.00 0.00 40 1008.5
20260503204852 53 277 2.0 4.0 0.00 0.00 0.00 38 1008.5
20260503204349 53 342 2.0 3.0 0.00 0.00 0.00 38 1008.5
20260503203846 51 310 0.0 4.0 0.00 0.00 0.00 40 1008.6
20260503203344 51 225 1.0 3.0 0.00 0.00 0.00 42 1008.6
20260503202841 51 163 3.0 4.0 0.00 0.00 0.00 39 1008.4
20260503202339 52 330 1.0 3.0 0.00 0.00 0.00 38 1008.1
20260503201837 50 315 2.0 3.0 0.00 0.00 0.00 42 1008.2
20260503201333 50 336 4.0 8.0 0.00 0.00 0.00 40 1008.5
20260503200831 53 238 2.0 6.0 0.00 0.00 0.00 40 1008.4
20260503200326 53 169 4.0 13.0 0.00 0.00 0.00 38 1008.3
20260503195824 53 123 2.0 8.0 0.00 0.00 0.00 39 1008.0
20260503195320 53 74 4.0 6.0 0.00 0.00 0.00 38 1008.0
20260503194818 50 156 0.0 7.0 0.00 0.00 0.00 41 1008.3
20260503194314 50 211 4.0 7.0 0.00 0.00 0.00 40 1008.5
20260503193810 49 296 2.0 4.0 0.00 0.00 0.00 41 1008.2
20260503193306 49 222 4.0 4.0 0.00 0.00 0.00 41 1008.1
20260503192802 49 339 8.0 15.0 0.00 0.00 0.00 41 1008.4
20260503192257 49 245 2.0 3.0 0.00 0.00 0.00 41 1008.3
20260503191754 50 49 4.0 9.0 0.00 0.00 0.00 40 1008.4
20260503191251 51 251 1.0 7.0 0.00 0.00 0.00 41 1007.9
20260503190748 51 346 0.0 4.0 0.00 0.00 0.00 41 1008.0
20260503190245 51 144 2.0 2.0 0.00 0.00 0.00 39 1008.0
20260503185742 51 73 0.0 4.0 0.00 0.00 0.00 38 1008.0
20260503185238 50 199 1.0 2.0 0.00 0.00 0.00 39 1008.0
20260503184732 51 49 2.0 3.0 0.00 0.00 0.00 39 1008.0
20260503184224 51 291 0.0 3.0 0.00 0.00 0.00 39 1008.0
20260503183720 50 103 1.0 4.0 0.00 0.00 0.00 39 1008.1
20260503183217 51 309 4.0 8.0 0.00 0.00 0.00 40 1008.1
20260503182716 51 98 0.0 0.0 0.00 0.00 0.00 41 1008.1
20260503182214 51 328 1.0 3.0 0.00 0.00 0.00 43 1008.0
20260503181710 51 185 0.0 2.0 0.00 0.00 0.00 42 1008.1
20260503181207 50 7 0.0 3.0 0.00 0.00 0.00 44 1008.0
20260503180704 50 87 4.0 9.0 0.00 0.00 0.00 39 1008.1
20260503180203 51 281 2.0 7.0 0.00 0.00 0.00 41 1008.1
20260503175659 51 291 3.0 4.0 0.00 0.00 0.00 38 1008.0
20260503175156 53 88 2.0 9.0 0.00 0.00 0.00 37 1007.9
20260503174652 52 334 3.0 6.0 0.00 0.00 0.00 38 1007.7
20260503174150 51 347 2.0 4.0 0.00 0.00 0.00 40 1007.9